Location: *
(43.2500°S, 179.8333°E)
Time: 12:50:20
(UTC+00:00)

Daily predictions for brighter satellites

Satellite Brightness Start Highest point End
(mag) Time Altitude Azimuth Time Altitude Azimuth Time Altitude Azimuth
ATLAS 5 CENTAUR R/B 3.6 15:48:28 44° ENE 15:48:36 44° ENE 15:55:08 10° SE
Lacrosse 5 rocket 4.4 16:11:03 12° NE 16:11:03 12° NE 16:11:23 10° NE
BREEZE-M TANK 4.0 16:08:48 60° ESE 16:08:48 60° ESE 16:18:23 10° E
Cosmos 2369 Rocket 4.1 16:11:51 18° SSE 16:14:19 24° SE 16:18:54 10° ENE
SJ 16-02 3.6 16:18:21 21° SE 16:18:56 22° ESE 16:22:24 10° ENE
Cosmos 2237 Rocket 4.2 16:25:39 18° S 16:25:39 18° S 16:27:08 10° SSE
Cosmos 1943 Rocket 2.6 16:32:37 56° SSE 16:33:15 60° ESE 16:38:47 10° NE
USA 234 3.2 16:33:53 10° SE 16:40:26 68° SW 16:40:44 67° SW
SL-16 R/B 2.3 16:46:26 66° S 16:46:26 66° S 16:51:27 10° SSE
NOSS 3-1 (C) 4.3 16:47:07 47° SW 16:47:18 47° SW 16:54:37 10° SSE
Cosmos 1153 Rocket 4.4 16:48:45 10° S 16:55:14 75° W 17:01:38 10° N
Cosmos 2100 Rocket 4.2 16:49:51 10° S 16:56:17 73° E 17:02:41 10° NNE
USA 229 DEB 4.0 16:56:02 52° WSW 16:57:07 57° SW 17:04:20 10° SSE
USA 229 3.9 16:56:05 52° W 16:57:12 57° SW 17:04:25 10° SSE
SMAP 3.8 17:00:24 10° NNE 17:04:57 53° ESE 17:09:34 10° S
Cosmos 1300 2.9 17:06:55 68° ENE 17:06:55 68° ENE 17:10:28 10° NNE
ISS -2.4 17:08:03 38° SE 17:08:03 38° SE 17:10:19 10° ESE
deb Chang Zheng 4 4.2 17:03:12 10° NNE 17:07:23 54° ESE 17:10:35 17° S
CZ-4B DEB 4.5 17:07:52 10° NNE 17:13:20 68° ESE 17:18:53 10° S
Lacrosse 4 Rocket 1.5 17:13:02 54° SSW 17:14:02 81° ESE 17:18:30 10° NNE
ATLAS 2A CENTAUR R/B 4.3 17:10:04 13° NNW 17:14:38 26° NNE 17:28:05 10° ENE
USA 276 4.3 17:15:26 19° NNE 17:16:27 22° NE 17:19:02 10° E
NOSS 3-1 (A) 4.4 17:16:30 36° W 17:19:26 48° SW 17:26:47 10° SSE
Radarsat Rocket 4.2 17:15:20 10° NNE 17:21:22 78° ESE 17:28:08 10° SSW
Cosmos 1943 3.9 17:19:26 10° N 17:24:58 57° ENE 17:30:32 10° SSE
MOS 1 Rocket 3.0 17:20:43 10° S 17:25:06 64° WSW 17:29:35 10° NNW
H-2A R/B 3.8 17:25:16 10° NE 17:29:41 31° ESE 17:34:14 10° S
Cosmos 1939 Rocket 3.1 17:25:57 10° NNE 17:29:53 68° ESE 17:33:50 10° S
Cosmos 1727 Rocket 4.3 17:24:04 10° NW 17:30:03 42° WSW 17:36:09 10° S
ATLAS 5 CENTAUR R/B 2.9 17:30:04 29° WNW 17:33:28 49° SW 17:39:58 10° SSE
CZ-4 R/B 4.2 17:31:32 10° E 17:33:35 14° ESE 17:35:38 10° SSE
CENTAUR R/B 4.2 17:29:29 10° SSW 17:33:47 20° SSE 17:37:43 10° ESE
EXPRESS MD2 3.1 17:35:41 54° WSW 17:36:12 63° SSW 17:41:28 10° ESE
MOS 1-B 4.4 17:33:36 10° NNE 17:39:27 87° ESE 17:45:22 10° SSW
Cosmos 1656 Rocket 4.0 17:34:56 10° SSW 17:40:28 68° ESE 17:46:02 10° NNE
CZ-4C R/B 4.2 17:38:40 10° SSE 17:42:10 46° E 17:45:40 10° N
Genesis I 3.9 17:40:49 21° SSW 17:43:05 48° SE 17:46:41 10° NE
Gbstr 26 Del rocket 4.5 17:38:49 18° WNW 17:44:55 81° SSW 17:53:12 10° ESE
Lacrosse 5 rocket 3.9 17:46:43 10° NW 17:46:43 10° NW 17:46:58 10° NW
Cosmos 468 Rocket 4.4 17:44:57 10° N 17:50:05 67° ENE 17:55:15 10° SSE
H-2A R/B 4.2 17:48:16 10° SE 17:52:01 28° E 17:55:39 10° NNE
Cosmos 1459 Rocket 4.2 17:46:11 10° SSW 17:52:06 47° W 17:57:54 10° NNW
Cosmos 2263 4.2 17:46:27 10° SSW 17:52:20 88° WNW 17:58:09 10° NNE
Meteor 1-24 Rocket 3.6 17:47:53 10° NNW 17:53:17 61° WSW 17:58:38 10° S
CZ-4B R/B 3.3 17:50:03 10° NNE 17:55:34 85° ESE 18:01:15 10° SSW
Cosmos 2173 Rocket 4.3 17:49:58 10° SSW 17:55:52 43° W 18:01:49 10° NNW
SJ 16-02 1.9 17:55:23 22° SW 17:57:39 38° WNW 18:01:44 10° N
Cosmos 2369 Rocket 2.3 17:53:40 13° SSW 17:58:44 58° WNW 18:04:17 10° N
USA 307 4.4 17:57:57 16° SSW 18:00:42 29° SSE 18:04:30 10° E
Meteor 2-5 Rocket 4.0 17:55:52 10° NW 18:01:14 43° WSW 18:06:36 10° S
Cosmos 1346 Rocket 3.5 17:57:46 10° NW 18:01:18 30° WSW 18:04:55 10° S
Cosmos 990 Rocket 4.0 17:59:54 10° SSW 18:05:16 89° ESE 18:10:33 10° NNE
Cosmos 1892 Rocket 4.1 18:01:08 10° N 18:05:27 62° E 18:09:51 10° SSE
Cosmos 1184 Rocket 3.0 18:02:48 10° NNW 18:05:58 45° WSW 18:09:12 10° S
Okean O Rocket 1.6 18:01:31 10° NNE 18:05:59 89° ESE 18:10:27 10° SSW
Cosmos 1455 2.5 18:02:54 10° S 18:06:52 71° E 18:10:44 10° NNE
Cosmos 2123 Rocket 4.1 18:03:28 10° NNW 18:09:33 55° WSW 18:15:45 10° S
Cosmos 2016 Rocket 4.1 18:04:10 10° SSW 18:10:11 50° W 18:16:05 10° NNW
CORIOLIS 4.5 18:06:16 10° N 18:11:28 46° W 18:16:43 10° SSW
BREEZE-M DEB (TANK) 3.8 18:09:43 20° WSW 18:11:52 49° S 18:20:24 10° ESE
Cosmos 1603 3.8 18:07:10 10° NW 18:12:51 61° WSW 18:18:36 10° SSE
SOZ 4.1 18:11:36 22° SW 18:13:05 89° S 18:15:08 10° NE
USA 290 2.1 18:12:30 10° NNW 18:15:48 74° WSW 18:19:08 10° SSE
Cosmos 1943 Rocket 3.4 18:14:12 16° WSW 18:16:28 20° W 18:20:26 10° NW
IRAS Rocket 4.2 18:11:32 10° SSE 18:17:13 70° WSW 18:22:48 10° NNW
USA 305 4.1 18:13:42 12° SW 18:17:18 36° SSE 18:21:21 10° E
USA 308 4.2 18:14:11 12° SW 18:17:45 34° SSE 18:21:43 10° E
Cosmos 389 Rocket 4.2 18:18:22 15° W 18:18:22 15° W 18:20:04 10° NW
USA 234 4.1 18:17:04 10° SE 18:22:46 32° SSW 18:28:06 11° WSW
H-2A R/B 2.6 18:18:24 10° NNE 18:22:49 81° WNW 18:27:24 10° SSW
CZ-4B R/B 3.9 18:20:43 10° SE 18:23:20 25° E 18:25:56 10° NNE
Cosmos 841 Rocket 4.1 18:21:09 10° N 18:26:23 65° ENE 18:31:39 10° SSE
CZ-2C R/B 3.8 18:22:25 10° NNW 18:27:17 35° W 18:32:27 10° SSW
USA 281 3.3 18:24:03 10° SSE 18:30:43 88° WSW 18:37:20 10° NNW
SL-16 R/B 3.8 18:28:21 12° WSW 18:30:49 15° SW 18:34:02 10° S
Meteor 2-10 Rocket 4.2 18:25:56 10° SSW 18:30:55 34° W 18:35:41 10° NNW
Feng Yun 1-1 Rocket 4.3 18:26:05 10° NNE 18:31:30 85° ESE 18:37:03 10° SSW
Cosmos 1703 3.4 18:28:29 10° N 18:32:25 81° E 18:36:25 10° S
Landsat 5 3.8 18:28:57 10° S 18:32:35 37° WSW 18:36:15 10° NW
Spot 2 4.2 18:28:22 10° N 18:32:40 54° WNW 18:36:50 10° SSW
Cosmos 1898 Rocket 3.6 18:28:50 10° SSW 18:34:12 67° WNW 18:39:30 10° N
COSMO-SKYMED 1 2.8 18:35:10 10° S 18:39:27 51° WSW 18:43:42 10° NNW
USA 306 3.7 18:37:22 10° SW 18:41:33 46° SSE 18:45:42 10° ENE
SL-08 RB Rocket 4.3 18:37:09 10° NNE 18:41:35 61° ESE 18:46:05 10° S
NOSS 3-2 (A) 3.8 18:35:53 10° SSW 18:42:19 61° SE 18:47:51 10° NE
Cosmos 2058 Rocket 3.1 18:38:34 10° SSW 18:43:10 74° W 18:47:39 10° N
ISS -2.3 18:41:08 10° WSW 18:44:03 25° SSW 18:46:58 10° SE
Cosmos 1763 Rocket 3.9 18:40:57 10° NW 18:45:49 41° WSW 18:50:43 10° S
Cosmos 1726 Rocket 4.1 18:42:08 10° SSW 18:46:23 40° W 18:50:36 10° NNW
Cosmos 921 Rocket 3.8 18:42:26 10° N 18:46:52 61° ENE 18:51:17 10° SSE
IRS-1C Rocket 4.4 18:41:41 10° NNE 18:46:57 74° ESE 18:52:17 10° S
Meteor 1-4 Rocket 2.6 18:44:20 10° SSW 18:47:58 59° W 18:51:29 10° N
Meteor 1-21 Rocket 4.2 18:43:55 10° NNW 18:49:29 73° W 18:55:07 10° S
